This demonstration page uses our WeatherBlox Daily Observations layout. Learn more.

Left ArrowRight Arrow

Hourly Observations for December 28, 2021

Temp ( °F °C ) Dew Point ( °F °C ) Humidity (%) Winds ( mph kmh ) Pressure ( in mb ) Visibility ( mi km ) Precip ( " mm )
12:56 am 00:56 Clear 32 0 16 -8.9 52 52 SSE 14 22 29.52 1000 10 16 0.00 0.00
1:56 am 01:56 Clear 31 -0.6 16 -8.9 54 54 SE 10 17 29.47 998 10 16 0.00 0.00
2:56 am 02:56 Clear 32 0 17 -8.3 54 54 S 13 20 29.43 997 10 16 0.00 0.00
3:56 am 03:56 Clear 30 -1.1 18 -7.8 61 61 S 7 11 29.42 996 10 16 0.00 0.00
4:56 am 04:56 Clear 25 -3.9 16 -8.9 69 69 SE 3 6 29.41 996 10 16 0.00 0.00
5:56 am 05:56 Mostly Clear 24 -4.4 17 -8.3 75 75 N 10 17 29.42 996 10 16 0.00 0.00
6:56 am 06:56 Clear 21 -6.1 15 -9.4 78 78 N 6 9 29.46 998 10 16 0.00 0.00
7:56 am 07:56 Clear 22 -5.6 15 -9.4 75 75 NW 9 15 29.49 999 10 16 0.00 0.00
8:56 am 08:56 Sunny 22 -5.6 16 -8.9 78 78 NW 9 15 29.53 1000 10 16 0.00 0.00
9:56 am 09:56 Sunny 26 -3.3 16 -8.9 66 66 NNW 23 37 29.59 1002 10 16 0.00 0.00
10:56 am 10:56 Sunny 21 -6.1 7 -13.9 54 54 NNW 25 41 29.65 1004 10 16 0.00 0.00
11:56 am 11:56 Sunny 25 -3.9 7 -13.9 46 46 NNW 20 31 29.67 1005 10 16 0.00 0.00
12:56 pm 12:56 Sunny 25 -3.9 7 -13.9 46 46 NNW 18 30 29.67 1005 10 16 0.00 0.00
1:56 pm 13:56 Sunny 25 -3.9 6 -14.4 44 44 N 21 33 29.70 1006 10 16 0.00 0.00
2:56 pm 14:56 Sunny 25 -3.9 6 -14.4 44 44 N 14 22 29.72 1007 10 16 0.00 0.00
3:56 pm 15:56 Sunny 26 -3.3 7 -13.9 44 44 N 14 22 29.75 1007 10 16 0.00 0.00
4:56 pm 16:56 Sunny 25 -3.9 8 -13.3 48 48 NNE 8 13 29.80 1009 10 16 0.00 0.00
5:56 pm 17:56 Clear 21 -6.1 7 -13.9 54 54 N 3 6 29.83 1010 10 16 0.00 0.00
6:56 pm 18:56 Clear 17 -8.3 6 -14.4 62 62 N 7 11 29.85 1011 10 16 0.00 0.00
7:56 pm 19:56 Clear 15 -9.4 6 -14.4 67 67 N 3 6 29.88 1012 10 16 0.00 0.00
8:56 pm 20:56 Clear 14 -10 5 -15 67 67 Calm 29.90 1012 10 16 0.00 0.00
9:56 pm 21:56 Clear 13 -10.6 6 -14.4 74 74 ESE 3 6 29.88 1012 10 16 0.00 0.00
10:56 pm 22:56 Clear 11 -11.7 4 -15.6 73 73 NNE 5 7 29.89 1012 10 16 0.00 0.00
11:56 pm 23:56 Mostly Clear 14 -10 6 -14.4 71 71 Calm 29.90 1013 10 16 0.00 0.00

Powered by AerisWeather